Location: Newark
(46.7000°N, 60.6000°W)
Time: 05:19:35
(UTC+00:00)

Transit 2A Rocket - Pass Details

Date: 02 November 2020
Orbit: 588 x 914 km, 66.7° (Epoch: 27 November)

Event Time Altitude Azimuth Distance (km) Brightness Sun altitude
Rises 19:13:00 0° 329° (NNW) 3,353 8.2 12.7°
Reaches altitude 10° 19:16:09 10° 346° (NNW) 2,355 7.3 12.3°
Maximum altitude 19:20:08 21° 34° (NE) 1,653 6.3 11.8°
Drops below altitude 10° 19:23:52 10° 83° (E) 2,182 6.9 11.3°
Sets 19:26:40 0° 100° (E) 3,036 7.7 10.9°
